SCP
0 0 0 0 0 0 0 0 0 0 0 0 0 0 0 0 0 0 0 0 0 0 0 0 0 0 0 0 0 0 0 0 0 0 0 0 0 0 0 0 0 0 0
0 0 0 0 0 0 0 0 0 0 0 0 0 0 0 0 0 0 0 0 0 0 0 0 0 0 0 0 0 0 0 0 0 0 0 0 0 0 0 0 0 0 0
0 0 0 0 0 0 0 0 0 0 0 0 0 0 0 0 0 0 0 0 0 0 0 0 0 0 0 0 0 0 0 0 0 0 0 0 0 0 0 0 0 0 0
0 0 0 0 0 0 0 0 0 0 0 0 0 0 0 0 0 0 0 0 0 0 0 0 0 0 0 0 0 0 0 0 0 0 0 0 0 0 0 0 0 0 0
0 0 0 0 0 0 0 0 0 0 0 0 0 0 0 0 0 0 0 0 0 0 0 0 0 0 0 0 0 0 0 0 0 0 0 0 0 0 0 0 0 0 0
0 0 0 0 0 0 0 0 0 0 0 0 0 0 0 0 0 0 0 0 0 0 0 0 0 0 0 0 0 0 0 0 0 0 0 0 0 0 0 0 0 0 0
0 0 0 0 0 0 0 0 0 0 0 0 0 0 0 0 0 0 0 0 0 0 0 0 0 0 0 0 0 0 0 0 0 0 0 0 0 0 0 0 0 0 0
0 0 0 0 0 0 0 0 0 0 0 0 0 0 0 0 0 0 0 0 0 0 0 0 0 0 0 0 0 0 0 0 0 0 0 0 0 0 0 0 0 0 0
0 0 0 0 0 0 0 0 0 0 0 0 0 0 0 0 0 0 0 0 0 0 0 0 0 0 0 0 0 0 0 0 0 0 0 0 0 0 0 0 0 0 0
0 0 0 0 0 0 0 0 0 0 0 0 0 0 0 0 0 0 0 0 0 0 0 0 0 0 0 0 0 0 0 0 0 0 0 0 0 0 0 0 0 0 0
0 0 0 0 0 0 0 0 0 0 0 0 0 0 0 0 0 0 0 0 0 0 0 0 0 0 0 0 0 0 0 0 0 0 0 0 0 0 0 0 0 0 0
0 0 0 0 0 0 0 0 0 0 0 0 0 0 0 0 0 0 0 0 0 0 0 0 0 0 0 0 0 0 0 0 0 0 0 0 0 0 0 0 0 0 0
0 0 0 0 0 0 0 0 0 0 0 0 0 0 0 0 0 0 0 0 0 0 0 0 0 0 0 0 0 0 0 0 0 0 0 0 0 0 0 0 0 0 0
0 0 0 0 0 0 0 0 0 0 0 0 0 0 0 0 0 0 0 0 0 0 0 0 0 0 0 0 0 0 0 0 0 0 0 0 0 0 0 0 0 0 0
0 0 0 0 0 0 0 0 0 0 0 0 0 0 0 0 0 0 0 0 0 0 0 0 0 0 0 0 0 0 0 0 0 0 0 0 0 0 0 0 0 0 0
0 0 0 0 0 0 0 0 0 0 0 0 0 0 0 0 0 0 0 0 0 0 0 0 0 0 0 0 0 0 0 0 0 0 0 0 0 0 0 0 0 0 0
0 0 0 0 0 0 0 0 0 0 0 0 0 0 0 0 0 0 0 0 0 0 0 0 0 0 0 0 0 0 0 0 0 0 0 0 0 0 0 0 0 0 0
0 0 0 0 0 0 0 0 0 0 0 0 0 0 0 0 0 0 0 0 0 0 0 0 0 0 0 0 0 0 0 0 0 0 0 0 0 0 0 0 0 0 0
0 0 0 0 0 0 0 0 0 0 0 0 0 0 0 0 0 0 0 0 0 0 0 0 0 0 0 0 0 0 0 0 0 0 0 0 0 0 0 0 0 0 0
0 0 0 0 0 0 0 0 0 0 0 0 0 0 0 0 0 0 0 0 0 0 0 0 0 0 0 0 0 0 0 0 0 0 0 0 0 0 0 0 0 0 0
0 0 0 0 0 0 0 0 0 0 0 0 0 0 0 0 0 0 0 0 0 0 0 0 0 0 0 0 0 0 0 0 0 0 0 0 0 0 0 0 0 0 0
0 0 0 0 0 0 0 0 0 0 0 0 0 0 0 0 0 0 0 0 0 0 0 0 0 0 0 0 0 0 0 0 0 0 0 0 0 0 0 0 0 0 0
0 0 0 0 0 0 0 0 0 0 0 0 0 0 0 0 0 0 0 0 0 0 0 0 0 0 0 0 0 0 0 0 0 0 0 0 0 0 0 0 0 0 0
0 0 0 0 0 0 0 0 0 0 0 0 0 0 0 0 0 0 0 0 0 0 0 0 0 0 0 0 0 0 0 0 0 0 0 0 0 0 0 0 0 0 0
0 0 0 0 0 0 0 0 0 0 0 0 0 0 0 0 0 0 0 0 0 0 0 0 0 0 0 0 0 0 0 0 0 0 0 0 0 0 0 0 0 0 0
0 0 0 0 0 0 0 0 0 0 0 0 0 0 0 0 0 0 0 0 0 0 0 0 0 0 0 0 0 0 0 0 0 0 0 0 0 0 0 0 0 0 0
Wind_Speed_500mb
22 21 20 19 18 17 17 16 15 14 14 15 12 11 10 11 12 12 11 11 11 13 14 15 15 17 20 15 16 14 30 33 26 29 24 19 14 8 7 7 4 5 8
24 22 21 21 21 20 20 19 18 17 17 17 15 15 15 15 17 16 15 14 14 15 13 15 12 13 13 15 16 19 27 35 26 27 23 17 11 11 9 10 20 20 24
27 26 23 23 20 22 24 23 21 20 20 19 17 15 15 16 18 18 16 16 16 15 14 14 11 12 18 15 11 20 25 26 25 27 19 12 16 18 23 22 22 24 26
33 31 29 27 24 26 28 25 24 23 22 20 18 16 17 16 18 20 19 20 20 17 15 11 9 15 21 14 17 24 22 21 25 25 16 11 14 18 21 23 24 28 29
41 38 35 31 30 32 32 29 28 27 24 21 18 19 23 24 26 22 22 23 22 20 16 13 13 19 19 13 19 20 22 26 24 22 14 12 13 18 17 19 21 22 23
47 46 42 38 38 39 38 36 34 32 29 26 23 27 30 32 30 29 29 30 27 23 20 19 21 20 19 18 19 21 25 24 26 20 11 9 7 12 13 19 21 23 18
55 53 49 46 46 47 43 40 39 37 35 31 31 32 33 35 35 32 29 30 26 24 26 21 18 21 26 24 24 25 25 26 22 19 11 7 4 10 15 13 15 15 17
63 59 55 52 50 52 51 49 47 45 42 37 39 38 35 36 36 34 31 28 27 31 26 27 25 27 29 26 26 25 23 24 24 18 13 7 1 10 10 11 11 12 13
69 66 61 59 56 56 57 55 53 52 50 45 43 39 15 22 19 23 23 25 30 30 30 31 30 30 31 33 29 28 26 27 24 18 13 9 5 10 6 5 6 9 11
74 72 70 67 63 60 61 59 55 57 54 54 49 51 50 45 34 28 30 31 32 34 34 36 37 37 32 33 33 30 30 25 21 18 16 14 10 9 5 1 3 6 9
79 78 77 73 71 67 65 64 61 60 59 60 57 57 52 51 53 49 43 36 40 40 42 43 40 39 35 37 35 33 31 29 23 20 20 18 15 13 9 5 4 4 7
75 79 81 80 77 73 71 68 65 64 63 63 63 62 63 62 52 56 57 54 51 48 47 46 44 41 40 37 40 36 35 31 27 23 23 22 21 18 14 10 9 6 5
77 76 74 79 80 76 74 71 70 72 69 68 66 66 66 68 66 63 59 56 56 55 52 50 45 43 45 44 40 41 40 36 32 29 29 29 26 23 18 14 14 11 9
72 68 70 71 70 72 72 73 75 75 75 75 72 69 70 70 69 71 69 68 67 64 60 60 54 48 44 47 43 46 46 43 37 34 33 34 31 28 22 20 18 17 13
70 68 67 66 64 64 65 67 73 75 76 76 75 76 76 71 70 70 69 67 66 60 64 64 57 53 46 49 45 48 48 45 41 41 41 39 37 34 28 25 24 21 16
67 66 65 63 59 59 60 64 67 67 72 73 70 74 73 76 72 71 74 69 67 76 75 63 58 51 46 47 46 49 50 52 44 45 46 44 42 39 34 31 28 24 21
69 66 62 59 57 57 60 63 63 62 62 64 65 69 70 68 70 69 75 75 76 80 84 76 64 58 53 47 49 53 54 55 49 48 48 49 47 45 40 36 32 28 26
65 65 62 60 59 59 59 60 59 60 64 67 67 65 64 63 63 70 69 77 74 76 82 81 74 61 58 56 50 55 55 55 53 52 52 55 52 50 47 42 36 33 31
65 63 62 63 62 61 59 57 59 64 62 65 61 60 58 60 61 65 73 76 71 78 72 88 70 73 60 55 55 60 64 61 57 57 58 59 58 54 52 47 41 38 36
66 66 64 62 61 59 56 54 62 59 62 58 55 55 54 58 59 59 61 65 72 68 75 72 74 75 65 60 60 66 67 66 59 62 63 62 61 57 55 52 47 43 41
66 65 63 59 55 54 55 56 58 58 56 56 58 57 58 58 56 57 61 65 64 67 71 66 88 80 71 68 71 66 69 67 62 64 63 64 63 61 58 57 55 48 47
63 63 63 60 55 48 53 53 53 55 57 56 58 56 58 58 55 63 57 62 64 63 70 81 93 87 78 74 68 69 67 68 69 69 65 67 64 68 61 62 57 53 53
44 46 50 51 46 49 49 54 52 57 53 54 57 53 55 55 55 55 61 62 64 69 64 69 79 79 71 68 62 65 67 65 65 62 54 61 62 66 61 64 61 58 58
35 37 39 40 43 48 52 51 50 52 55 57 50 51 52 52 52 54 55 60 57 57 61 61 65 68 67 59 57 58 56 57 56 60 58 56 52 58 65 69 64 63 64
32 33 34 38 43 47 51 53 57 59 55 49 50 50 50 51 47 48 53 56 55 55 58 59 66 67 59 60 59 61 62 59 58 59 54 61 52 68 65 70 68 67 66
37 39 40 41 43 43 44 47 47 47 48 48 50 44 37 35 37 41 46 54 52 43 50 57 65 66 65 63 59 48 41 42 52 49 49 48 73 58 69 69 66 63 63
Wind_Direction_500mb
210 211 211 213 214 217 222 227 234 242 250 258 265 273 277 277 280 287 299 310 315 323 334 336 344 358 16 14 1 348 355 2 8 16 17 30 49 59 83 45 34 66 27
216 220 224 221 224 227 231 236 239 243 249 257 264 271 277 281 283 285 287 290 293 306 309 323 332 354 13 355 343 337 353 360 9 13 18 30 46 36 42 45 59 59 58
224 224 228 229 229 234 238 241 247 251 256 262 267 274 278 273 279 283 287 283 285 287 291 315 329 346 348 342 322 337 343 359 353 1 8 14 50 55 67 69 65 64 62
229 229 230 231 230 236 242 245 250 253 257 265 270 269 261 262 270 277 280 280 280 279 290 295 322 341 333 337 326 326 330 352 347 355 -0 357 60 76 76 83 78 71 73
235 235 235 235 236 240 245 247 250 254 257 263 264 259 259 270 270 272 270 273 270 269 273 271 296 313 313 318 316 310 316 339 346 346 343 352 73 84 89 81 75 79 73
238 240 240 239 239 243 245 248 251 254 255 254 251 261 263 270 273 271 271 268 261 265 264 274 283 296 298 298 293 295 311 321 337 336 341 354 88 86 99 85 93 84 73
239 240 241 241 242 246 250 252 252 253 252 250 253 258 269 271 274 274 268 260 252 253 261 277 286 294 296 296 294 294 295 313 327 326 331 327 113 107 92 109 91 79 61
239 240 243 244 245 249 250 250 251 252 251 244 252 258 267 266 269 272 269 256 256 256 257 274 272 282 298 296 294 284 291 303 315 315 313 292 147 124 138 94 80 65 44
242 243 244 246 245 248 251 253 253 253 254 249 247 246 249 250 273 256 253 261 252 260 267 273 279 283 291 287 290 277 282 291 297 297 285 267 202 183 133 105 60 39 26
243 245 247 248 248 248 251 253 253 253 253 250 249 248 246 253 266 274 266 268 266 268 271 272 279 284 283 281 285 274 278 281 284 280 269 254 228 206 196 187 28 10 20
246 248 247 249 250 250 251 252 251 251 252 252 248 248 246 252 255 260 267 270 271 271 268 265 269 276 279 276 276 270 268 273 266 260 251 244 229 224 230 245 284 328 6
249 248 248 249 250 252 251 253 254 253 252 252 250 247 245 246 253 256 260 264 270 273 271 274 275 271 285 268 271 268 263 265 264 256 250 237 225 227 233 250 270 283 326
249 247 246 246 249 250 252 253 254 253 252 252 252 250 249 248 251 257 264 268 268 273 271 270 269 282 282 281 272 267 262 261 259 252 247 234 228 227 233 247 260 272 296
254 253 250 250 252 253 255 256 257 258 255 253 253 253 254 251 252 255 259 264 269 270 267 269 270 271 276 286 270 262 262 262 256 249 243 235 230 232 235 243 252 263 282
254 255 254 254 253 253 256 258 258 259 259 257 255 255 255 256 256 257 258 260 266 261 266 272 267 272 269 272 268 259 259 261 249 244 243 235 232 233 236 242 249 259 273
255 255 255 254 253 254 255 255 257 258 259 259 258 259 258 259 259 260 257 253 255 264 263 267 267 269 273 272 264 260 256 258 250 243 242 237 233 234 238 242 247 255 265
257 258 259 256 254 253 255 257 260 263 265 265 262 260 262 261 263 262 265 260 253 255 259 263 264 270 269 270 259 259 253 257 255 241 240 239 237 236 239 243 248 253 260
259 260 259 257 255 254 255 258 262 266 264 266 266 263 262 265 263 263 260 267 265 266 261 258 257 262 268 271 259 256 253 255 254 244 242 239 238 238 240 245 248 252 259
258 258 258 257 256 256 256 253 259 261 262 262 263 265 263 259 261 261 262 264 271 267 271 263 258 251 255 257 251 254 248 249 249 245 243 240 240 239 241 245 250 252 258
258 258 258 258 258 257 254 257 256 259 260 259 261 262 260 261 261 265 266 267 266 271 262 260 249 250 255 257 250 252 248 251 251 247 246 244 243 243 243 245 252 254 258
257 259 261 261 259 256 252 251 256 255 255 255 257 258 261 263 265 264 264 265 266 269 271 256 257 245 255 247 244 253 249 249 253 248 247 248 247 248 247 248 252 255 258
257 256 254 253 251 247 249 247 251 249 251 253 253 259 261 263 262 266 265 270 272 272 268 266 260 242 257 252 251 252 249 246 247 251 249 249 246 247 247 249 252 254 258
251 250 248 246 243 240 241 246 245 250 253 257 261 261 257 261 265 267 269 271 267 270 270 270 257 254 257 257 255 251 248 248 256 256 254 250 254 252 256 253 252 255 259
246 246 244 244 242 241 243 243 244 246 250 256 255 258 259 260 261 264 266 269 269 273 272 260 258 264 264 254 248 248 252 255 252 251 249 252 250 262 263 254 252 260 258
245 242 238 235 234 235 238 241 244 247 248 248 250 254 259 260 264 266 268 268 265 272 260 253 257 256 255 260 244 240 240 238 240 244 245 247 249 267 260 256 250 257 256
235 233 233 232 236 239 240 244 249 253 257 257 258 258 254 257 262 265 268 271 278 272 267 267 261 258 257 258 257 245 238 247 248 247 245 252 270 257 256 256 253 251 252
Wind_Speed_850mb
22 21 20 19 18 17 17 16 15 14 14 15 12 11 10 11 12 12 11 11 11 13 14 15 15 17 20 15 16 14 30 33 26 29 24 19 14 8 7 7 4 5 8
24 22 21 21 21 20 20 19 18 17 17 17 15 15 15 15 17 16 15 14 14 15 13 15 12 13 13 15 16 19 27 35 26 27 23 17 11 11 9 10 20 20 24
27 26 23 23 20 22 24 23 21 20 20 19 17 15 15 16 18 18 16 16 16 15 14 14 11 12 18 15 11 20 25 26 25 27 19 12 16 18 23 22 22 24 26
33 31 29 27 24 26 28 25 24 23 22 20 18 16 17 16 18 20 19 20 20 17 15 11 9 15 21 14 17 24 22 21 25 25 16 11 14 18 21 23 24 28 29
41 38 35 31 30 32 32 29 28 27 24 21 18 19 23 24 26 22 22 23 22 20 16 13 13 19 19 13 19 20 22 26 24 22 14 12 13 18 17 19 21 22 23
47 46 42 38 38 39 38 36 34 32 29 26 23 27 30 32 30 29 29 30 27 23 20 19 21 20 19 18 19 21 25 24 26 20 11 9 7 12 13 19 21 23 18
55 53 49 46 46 47 43 40 39 37 35 31 31 32 33 35 35 32 29 30 26 24 26 21 18 21 26 24 24 25 25 26 22 19 11 7 4 10 15 13 15 15 17
63 59 55 52 50 52 51 49 47 45 42 37 39 38 35 36 36 34 31 28 27 31 26 27 25 27 29 26 26 25 23 24 24 18 13 7 1 10 10 11 11 12 13
69 66 61 59 56 56 57 55 53 52 50 45 43 39 15 22 19 23 23 25 30 30 30 31 30 30 31 33 29 28 26 27 24 18 13 9 5 10 6 5 6 9 11
74 72 70 67 63 60 61 59 55 57 54 54 49 51 50 45 34 28 30 31 32 34 34 36 37 37 32 33 33 30 30 25 21 18 16 14 10 9 5 1 3 6 9
79 78 77 73 71 67 65 64 61 60 59 60 57 57 52 51 53 49 43 36 40 40 42 43 40 39 35 37 35 33 31 29 23 20 20 18 15 13 9 5 4 4 7
75 79 81 80 77 73 71 68 65 64 63 63 63 62 63 62 52 56 57 54 51 48 47 46 44 41 40 37 40 36 35 31 27 23 23 22 21 18 14 10 9 6 5
77 76 74 79 80 76 74 71 70 72 69 68 66 66 66 68 66 63 59 56 56 55 52 50 45 43 45 44 40 41 40 36 32 29 29 29 26 23 18 14 14 11 9
72 68 70 71 70 72 72 73 75 75 75 75 72 69 70 70 69 71 69 68 67 64 60 60 54 48 44 47 43 46 46 43 37 34 33 34 31 28 22 20 18 17 13
70 68 67 66 64 64 65 67 73 75 76 76 75 76 76 71 70 70 69 67 66 60 64 64 57 53 46 49 45 48 48 45 41 41 41 39 37 34 28 25 24 21 16
67 66 65 63 59 59 60 64 67 67 72 73 70 74 73 76 72 71 74 69 67 76 75 63 58 51 46 47 46 49 50 52 44 45 46 44 42 39 34 31 28 24 21
69 66 62 59 57 57 60 63 63 62 62 64 65 69 70 68 70 69 75 75 76 80 84 76 64 58 53 47 49 53 54 55 49 48 48 49 47 45 40 36 32 28 26
65 65 62 60 59 59 59 60 59 60 64 67 67 65 64 63 63 70 69 77 74 76 82 81 74 61 58 56 50 55 55 55 53 52 52 55 52 50 47 42 36 33 31
65 63 62 63 62 61 59 57 59 64 62 65 61 60 58 60 61 65 73 76 71 78 72 88 70 73 60 55 55 60 64 61 57 57 58 59 58 54 52 47 41 38 36
66 66 64 62 61 59 56 54 62 59 62 58 55 55 54 58 59 59 61 65 72 68 75 72 74 75 65 60 60 66 67 66 59 62 63 62 61 57 55 52 47 43 41
66 65 63 59 55 54 55 56 58 58 56 56 58 57 58 58 56 57 61 65 64 67 71 66 88 80 71 68 71 66 69 67 62 64 63 64 63 61 58 57 55 48 47
63 63 63 60 55 48 53 53 53 55 57 56 58 56 58 58 55 63 57 62 64 63 70 81 93 87 78 74 68 69 67 68 69 69 65 67 64 68 61 62 57 53 53
44 46 50 51 46 49 49 54 52 57 53 54 57 53 55 55 55 55 61 62 64 69 64 69 79 79 71 68 62 65 67 65 65 62 54 61 62 66 61 64 61 58 58
35 37 39 40 43 48 52 51 50 52 55 57 50 51 52 52 52 54 55 60 57 57 61 61 65 68 67 59 57 58 56 57 56 60 58 56 52 58 65 69 64 63 64
32 33 34 38 43 47 51 53 57 59 55 49 50 50 50 51 47 48 53 56 55 55 58 59 66 67 59 60 59 61 62 59 58 59 54 61 52 68 65 70 68 67 66
37 39 40 41 43 43 44 47 47 47 48 48 50 44 37 35 37 41 46 54 52 43 50 57 65 66 65 63 59 48 41 42 52 49 49 48 73 58 69 69 66 63 63
Wind_Direction_850mb
210 211 211 213 214 217 222 227 234 242 250 258 265 273 277 277 280 287 299 310 315 323 334 336 344 358 16 14 1 348 355 2 8 16 17 30 49 59 83 45 34 66 27
216 220 224 221 224 227 231 236 239 243 249 257 264 271 277 281 283 285 287 290 293 306 309 323 332 354 13 355 343 337 353 360 9 13 18 30 46 36 42 45 59 59 58
224 224 228 229 229 234 238 241 247 251 256 262 267 274 278 273 279 283 287 283 285 287 291 315 329 346 348 342 322 337 343 359 353 1 8 14 50 55 67 69 65 64 62
229 229 230 231 230 236 242 245 250 253 257 265 270 269 261 262 270 277 280 280 280 279 290 295 322 341 333 337 326 326 330 352 347 355 -0 357 60 76 76 83 78 71 73
235 235 235 235 236 240 245 247 250 254 257 263 264 259 259 270 270 272 270 273 270 269 273 271 296 313 313 318 316 310 316 339 346 346 343 352 73 84 89 81 75 79 73
238 240 240 239 239 243 245 248 251 254 255 254 251 261 263 270 273 271 271 268 261 265 264 274 283 296 298 298 293 295 311 321 337 336 341 354 88 86 99 85 93 84 73
239 240 241 241 242 246 250 252 252 253 252 250 253 258 269 271 274 274 268 260 252 253 261 277 286 294 296 296 294 294 295 313 327 326 331 327 113 107 92 109 91 79 61
239 240 243 244 245 249 250 250 251 252 251 244 252 258 267 266 269 272 269 256 256 256 257 274 272 282 298 296 294 284 291 303 315 315 313 292 147 124 138 94 80 65 44
242 243 244 246 245 248 251 253 253 253 254 249 247 246 249 250 273 256 253 261 252 260 267 273 279 283 291 287 290 277 282 291 297 297 285 267 202 183 133 105 60 39 26
243 245 247 248 248 248 251 253 253 253 253 250 249 248 246 253 266 274 266 268 266 268 271 272 279 284 283 281 285 274 278 281 284 280 269 254 228 206 196 187 28 10 20
246 248 247 249 250 250 251 252 251 251 252 252 248 248 246 252 255 260 267 270 271 271 268 265 269 276 279 276 276 270 268 273 266 260 251 244 229 224 230 245 284 328 6
249 248 248 249 250 252 251 253 254 253 252 252 250 247 245 246 253 256 260 264 270 273 271 274 275 271 285 268 271 268 263 265 264 256 250 237 225 227 233 250 270 283 326
249 247 246 246 249 250 252 253 254 253 252 252 252 250 249 248 251 257 264 268 268 273 271 270 269 282 282 281 272 267 262 261 259 252 247 234 228 227 233 247 260 272 296
254 253 250 250 252 253 255 256 257 258 255 253 253 253 254 251 252 255 259 264 269 270 267 269 270 271 276 286 270 262 262 262 256 249 243 235 230 232 235 243 252 263 282
254 255 254 254 253 253 256 258 258 259 259 257 255 255 255 256 256 257 258 260 266 261 266 272 267 272 269 272 268 259 259 261 249 244 243 235 232 233 236 242 249 259 273
255 255 255 254 253 254 255 255 257 258 259 259 258 259 258 259 259 260 257 253 255 264 263 267 267 269 273 272 264 260 256 258 250 243 242 237 233 234 238 242 247 255 265
257 258 259 256 254 253 255 257 260 263 265 265 262 260 262 261 263 262 265 260 253 255 259 263 264 270 269 270 259 259 253 257 255 241 240 239 237 236 239 243 248 253 260
259 260 259 257 255 254 255 258 262 266 264 266 266 263 262 265 263 263 260 267 265 266 261 258 257 262 268 271 259 256 253 255 254 244 242 239 238 238 240 245 248 252 259
258 258 258 257 256 256 256 253 259 261 262 262 263 265 263 259 261 261 262 264 271 267 271 263 258 251 255 257 251 254 248 249 249 245 243 240 240 239 241 245 250 252 258
258 258 258 258 258 257 254 257 256 259 260 259 261 262 260 261 261 265 266 267 266 271 262 260 249 250 255 257 250 252 248 251 251 247 246 244 243 243 243 245 252 254 258
257 259 261 261 259 256 252 251 256 255 255 255 257 258 261 263 265 264 264 265 266 269 271 256 257 245 255 247 244 253 249 249 253 248 247 248 247 248 247 248 252 255 258
257 256 254 253 251 247 249 247 251 249 251 253 253 259 261 263 262 266 265 270 272 272 268 266 260 242 257 252 251 252 249 246 247 251 249 249 246 247 247 249 252 254 258
251 250 248 246 243 240 241 246 245 250 253 257 261 261 257 261 265 267 269 271 267 270 270 270 257 254 257 257 255 251 248 248 256 256 254 250 254 252 256 253 252 255 259
246 246 244 244 242 241 243 243 244 246 250 256 255 258 259 260 261 264 266 269 269 273 272 260 258 264 264 254 248 248 252 255 252 251 249 252 250 262 263 254 252 260 258
245 242 238 235 234 235 238 241 244 247 248 248 250 254 259 260 264 266 268 268 265 272 260 253 257 256 255 260 244 240 240 238 240 244 245 247 249 267 260 256 250 257 256
235 233 233 232 236 239 240 244 249 253 257 257 258 258 254 257 262 265 268 271 278 272 267 267 261 258 257 258 257 245 238 247 248 247 245 252 270 257 256 256 253 251 252